Location: Altleiningen
(49.5078°N, 8.0741°E)
Time: 00:13:24
(UTC+00:00)

FALCON 9 DEB - Pass Details

Date: 03 March 2021
Orbit: 371 x 387 km, 53.0° (Epoch: 13 April)

Event Time Altitude Azimuth Distance (km) Brightness Sun altitude
Rises 19:18:32 0° 289° (WNW) 2,295 8.4 -20.9°
Reaches altitude 10° 19:20:38 10° 294° (WNW) 1,437 6.9 -21.2°
Enters shadow 19:23:15 45° 335° (NNW) 552 3.8 -21.6°
